Regional Weather Roundup
Issued by NWS

Home | Current Version | Previous Version | Graphics & Text | Print | Product List | Glossary On
Versions: 1 2 3 4 5 6 7 8 9 10 11 12 13 14 15 16 17 18 19 20 21 22 23 24 25 26 27 28 29 30 31 32 33 34 35 36 37 38 39 40 41 42 43 44 45 46 47 48 49 50
528
ASUS45 KBOI 231010
RWRID

IDAHO REGIONAL WEATHER ROUNDUP
NATIONAL WEATHER SERVICE BOISE ID
400 AM MDT SUN JUL 23 2017

NOTE: "FAIR" INDICATES FEW OR NO CLOUDS BELOW 12000 FEET
WITH NO SIGNIFICANT WEATHER AND/OR OBSTRUCTIONS TO VISIBILITY

IDZ012-014-231100-
SOUTHWEST IDAHO


CITY           SKY/WX    TMP DP  RH WIND       PRES   REMARKS
BOISE          CLEAR     68  39  34 S5        30.01R
CALDWELL       CLEAR     65  48  54 W9        29.99S
MOUNTAIN HOME  CLEAR     65  41  41 SE3       30.02R
$$

IDZ016-017-231100-
SOUTHCENTRAL IDAHO


CITY           SKY/WX    TMP DP  RH WIND       PRES   REMARKS
BURLEY         CLOUDY    63  43  48 S6        30.08F
JEROME         MOCLDY    70  36  28 W3        30.08F
TWIN FALLS     MOCLDY    70  35  27 S13       30.09F
$$

IDZ019>023-231100-
SOUTHEAST IDAHO


CITY           SKY/WX    TMP DP  RH WIND       PRES   REMARKS
IDAHO FALLS    CLEAR     51  46  83 CALM      30.15S
POCATELLO      CLEAR     59  36  42 S8        30.14S
REXBURG        CLEAR     52  46  80 NE3       30.16S
$$

IDZ006-010-011-018-031-032-231100-
CENTRAL IDAHO MOUNTAINS


CITY           SKY/WX    TMP DP  RH WIND       PRES   REMARKS
MCCALL         CLEAR     54  40  59 W3        30.15F
HAILEY         PTCLDY    59  36  41 NW6       30.21R
STANLEY          N/A     47  34  60 S6        30.27F
SALMON         NOT AVBL
CHALLIS        CLEAR     56  37  49 NW3       30.16S
$$

IDZ002-004-006-007-026-231100-
NORTHERN IDAHO


CITY           SKY/WX    TMP DP  RH WIND       PRES   REMARKS
LEWISTON       CLEAR     70  45  40 SE3       29.99S
LOWELL           N/A     59  52  77 CALM      30.06S
COEUR D`ALENE  CLEAR     63  52  67 CALM      30.04S
MULLAN PASS    CLEAR     60  40  47 NW3       30.23F
$$




USA.gov is the U.S. government's official web portal to all federal, state and local government web resources and services.